Theta_e
303 292 288 287 290 293 296 297 297 297 296 295 294 294 292 292 294 297 297 300 301 298 297 298 298 299 300 301 303 304 303 302 302 306 307 308 309 310 311 312 312 312 312 315 316 320 322 323 325 326 325 325 326 326 327 328 328 329 329 329 329 330 331 330 330 330 330 329 328 328 328 328 329 329 329 329 330 330 330 329 329 328 327 327 326 326
299 290 289 292 293 294 295 297 298 297 297 294 293 292 290 292 290 295 296 300 300 296 294 296 296 297 298 300 301 303 303 301 301 305 307 307 307 308 308 310 311 313 316 317 317 320 321 322 325 326 326 324 325 325 325 326 327 328 328 328 329 329 330 330 330 330 330 330 329 328 328 329 329 328 328 328 329 330 330 329 329 328 328 327 327 325
291 288 292 294 296 296 295 295 296 296 295 295 292 291 290 290 294 296 296 297 299 297 293 295 294 295 298 299 301 302 301 303 303 304 307 307 307 306 307 307 309 311 313 316 321 320 321 323 325 326 326 326 326 326 325 326 326 326 327 327 328 329 328 329 329 329 330 330 330 329 328 328 327 329 329 329 328 329 329 329 328 328 328 328 327 326
285 290 294 296 296 294 293 294 293 293 294 293 292 290 288 292 290 286 293 295 296 296 293 294 292 294 297 300 300 302 302 302 304 305 305 306 305 305 306 307 307 309 311 313 317 318 319 320 321 322 323 325 326 326 326 326 326 327 326 326 327 328 328 328 328 327 329 329 329 329 328 328 328 326 327 328 328 328 328 327 328 328 328 328 328 327
287 292 298 297 296 294 292 293 292 290 288 293 293 292 290 291 292 291 291 294 295 296 297 293 292 292 294 294 296 300 302 302 303 304 305 305 306 307 306 308 309 308 309 312 314 317 317 319 319 319 321 322 323 323 324 326 326 327 327 327 327 327 328 328 327 326 328 328 327 328 327 326 327 325 325 326 325 326 326 327 327 328 329 329 328 328
290 294 296 294 295 294 292 290 291 291 288 289 293 293 293 294 293 293 294 292 290 288 293 294 284 285 291 294 295 297 299 300 302 302 303 303 305 306 305 305 308 310 310 313 314 315 317 317 318 319 319 319 319 320 321 324 325 326 327 328 328 328 327 327 327 327 327 326 327 326 324 323 322 322 321 323 324 325 325 326 328 328 329 329 328 328
291 295 295 292 293 293 292 290 292 293 288 288 289 296 295 294 294 293 292 291 285 282 291 294 284 281 288 290 293 296 297 297 300 301 303 304 304 305 306 305 306 308 309 312 314 314 314 316 317 318 320 320 319 320 321 321 322 324 325 326 328 327 327 328 327 327 325 325 326 326 325 325 324 323 324 325 325 326 326 326 326 327 328 329 328 328
293 293 293 293 292 290 290 288 292 292 288 286 295 295 295 294 293 293 293 291 289 293 294 294 291 283 284 289 294 294 293 295 297 300 301 303 304 305 306 306 305 309 310 311 312 314 314 314 314 315 316 321 322 321 321 320 319 320 322 323 325 326 326 327 327 327 326 325 325 325 325 324 324 323 323 324 324 325 325 326 326 326 327 328 329 328
292 291 291 290 290 289 288 291 294 294 290 289 295 298 294 294 294 295 293 291 290 288 285 289 292 285 283 289 294 294 292 293 294 297 299 301 303 305 306 307 306 308 310 311 312 312 313 313 314 315 315 317 318 321 321 320 319 318 319 319 321 324 325 325 326 326 326 324 324 324 324 323 323 324 324 323 323 323 324 325 325 325 326 327 328 328
293 291 293 293 291 287 291 292 293 294 289 294 297 299 296 296 295 294 290 289 288 285 282 287 290 282 283 288 290 292 292 292 294 296 297 300 302 304 306 307 307 307 307 310 311 311 311 312 313 314 314 314 315 316 321 321 319 318 317 317 317 319 322 324 325 325 326 325 323 323 323 322 323 323 323 324 324 324 324 323 325 325 325 326 327 328
292 298 300 294 290 293 293 294 295 294 294 297 296 293 293 292 290 290 290 286 285 281 284 289 290 287 280 287 288 288 290 293 294 295 297 298 300 302 306 307 307 307 307 307 309 310 310 311 312 313 313 314 314 316 318 321 319 318 317 316 316 317 319 321 324 325 325 325 324 323 323 322 322 322 322 322 321 322 323 323 324 325 326 327 327 328
290 292 291 294 297 296 296 293 297 296 296 294 290 289 288 286 288 285 284 286 280 279 286 290 289 290 280 285 290 294 295 295 294 294 296 297 299 300 301 305 306 307 306 305 307 309 310 310 310 309 311 312 313 314 316 317 319 318 318 317 316 316 318 319 322 324 324 325 324 323 323 323 323 323 323 322 321 322 322 322 323 323 324 324 326 327
284 286 291 293 296 295 293 290 290 294 293 290 287 286 281 278 281 276 281 277 278 278 285 289 290 286 285 290 292 294 295 295 295 296 296 297 299 299 300 302 304 305 305 305 305 306 308 309 310 309 309 309 310 313 316 317 317 317 317 317 316 316 317 318 320 321 323 323 324 323 322 322 323 323 322 322 321 322 323 323 322 323 323 323 322 324
280 288 289 290 292 295 294 285 284 285 288 288 285 283 280 275 275 274 277 279 279 282 286 285 290 284 289 291 296 295 297 299 299 299 299 299 300 300 300 304 304 304 304 305 306 306 306 308 309 309 309 310 311 311 313 313 313 314 315 315 315 315 316 317 318 319 321 323 323 324 323 322 322 322 322 322 322 322 323 323 322 322 323 323 323 322
274 275 283 288 283 294 292 291 290 288 288 288 291 287 282 281 276 273 276 274 276 278 282 287 282 278 282 286 296 297 299 300 301 301 301 300 299 299 300 300 301 302 303 305 305 306 306 308 309 310 311 309 309 309 310 309 310 310 311 312 312 313 313 314 316 317 318 321 323 323 323 322 322 322 322 322 323 323 322 322 323 323 322 322 323 323
277 279 285 292 291 294 290 294 294 291 288 290 290 290 284 281 286 277 279 280 280 279 280 281 281 284 286 293 294 296 297 298 299 300 300 300 300 299 300 301 301 301 303 303 304 305 306 307 307 307 307 308 308 308 308 308 308 309 310 310 311 310 310 311 311 313 316 319 322 322 323 323 322 322 323 323 323 322 322 322 322 323 323 323 323 324
279 277 287 289 292 291 292 295 293 294 277 286 287 282 285 291 287 280 281 282 281 280 277 284 283 288 293 295 296 297 295 295 297 296 297 298 299 300 300 301 302 302 302 302 303 304 305 305 306 307 307 308 308 308 309 310 310 311 310 311 310 310 311 311 310 309 310 312 313 315 318 320 320 321 320 321 321 322 322 323 322 322 322 322 322 323
276 277 285 285 284 290 295 294 295 294 293 287 281 286 293 289 284 281 275 276 276 273 275 283 280 282 283 280 295 294 294 295 296 297 298 298 298 298 299 301 302 302 302 303 303 302 303 304 304 305 307 307 308 309 308 307 305 306 307 308 308 308 308 309 310 309 309 309 309 310 313 315 319 320 320 320 321 322 322 321 321 320 321 320 321 323
283 276 281 286 287 290 296 293 289 294 295 288 285 294 285 279 279 282 278 271 269 271 272 278 280 281 284 285 290 289 291 293 295 297 297 297 298 298 298 299 300 302 303 303 303 303 304 304 305 305 307 304 303 304 304 304 304 305 306 307 307 307 308 308 309 309 310 309 312 313 314 315 316 317 318 318 318 319 320 319 319 318 317 318 317 320
285 275 278 286 286 288 289 287 280 284 292 293 293 289 287 286 281 280 279 279 277 271 272 273 277 276 285 286 290 290 293 294 294 294 296 298 298 299 298 301 302 302 303 303 303 303 304 303 301 301 302 302 302 302 303 303 303 304 305 305 305 306 306 306 307 308 308 308 309 308 309 310 311 312 313 313 315 314 314 313 314 314 313 312 313 314
280 284 273 281 287 287 279 285 282 284 282 283 284 283 285 282 287 285 284 281 276 272 273 272 272 276 284 289 290 291 293 294 295 295 297 298 299 299 298 300 302 303 303 303 303 303 303 303 302 301 301 300 300 300 302 302 303 303 304 304 304 305 305 305 306 306 306 307 307 307 307 308 309 310 311 312 310 309 309 309 310 311 312 312 312 312
279 280 275 279 278 278 281 288 288 288 287 287 286 283 286 283 280 276 275 285 280 278 273 273 271 278 288 296 295 295 296 296 297 297 298 298 299 299 299 299 300 302 302 303 302 301 300 301 301 299 299 300 299 299 300 301 302 302 303 303 303 304 304 303 304 304 305 304 305 305 306 306 307 309 309 307 306 306 307 308 309 309 308 308 309 311
285 282 277 275 276 278 282 286 292 291 291 289 288 284 286 285 284 279 273 277 280 281 282 280 276 277 292 293 296 295 296 296 296 296 297 297 298 299 299 300 301 300 301 301 301 301 300 300 300 299 299 298 299 299 299 299 300 300 300 300 301 302 301 302 302 303 304 304 303 303 303 304 304 305 305 304 305 305 306 307 307 308 307 306 306 308
289 277 275 276 280 283 285 286 284 282 287 285 287 289 287 283 284 281 281 281 277 278 278 278 276 280 290 293 295 295 294 295 296 296 297 297 298 299 300 300 301 301 300 300 299 300 299 299 298 298 298 299 298 298 299 298 298 298 298 299 298 300 300 301 301 302 302 303 303 304 303 303 304 304 304 303 303 303 304 305 306 306 306 305 306 306
276 278 276 273 272 273 274 280 283 283 282 280 281 286 288 288 287 285 284 283 277 279 279 277 272 278 288 292 294 294 294 295 296 297 297 297 298 298 298 300 300 300 300 299 298 298 298 297 297 298 298 298 298 298 298 298 298 297 298 297 297 298 298 298 299 300 300 300 300 299 299 299 301 301 302 302 302 302 303 303 304 305 305 305 304 304
280 278 275 269 267 266 266 267 269 273 277 283 284 284 286 286 285 283 278 281 276 280 281 277 277 284 288 290 292 294 293 294 295 296 297 297 298 298 298 299 300 299 299 298 298 298 297 297 297 297 298 298 297 297 297 297 297 296 296 297 297 296 296 296 297 298 298 298 297 297 296 296 296 297 297 297 297 298 299 299 300 301 302 303 303 302
279 280 277 275 273 272 274 276 280 282 280 277 279 283 284 286 287 285 283 280 277 281 279 280 281 282 285 287 288 288 289 293 293 294 295 296 297 297 297 298 298 299 299 299 298 297 297 297 297 297 297 297 297 296 296 295 296 295 295 294 295 295 295 295 295 296 296 295 294 294 293 294 294 294 294 294 295 295 296 296 296 297 298 298 298 298
280 278 278 277 277 278 280 279 281 282 279 280 279 280 283 284 284 282 280 278 285 281 276 283 285 282 284 287 288 289 290 290 290 291 292 295 297 298 298 299 298 298 298 298 298 297 297 297 296 295 295 295 295 295 295 294 294 294 293 293 293 293 294 296 294 294 293 293 292 292 291 291 292 292 293 294 294 294 294 294 294 295 295 295 295 295
277 276 277 277 278 280 281 281 282 281 281 281 281 281 280 282 282 280 281 283 283 280 277 283 285 283 285 288 290 290 290 291 291 292 293 293 292 295 297 296 297 298 297 297 298 297 297 297 296 295 294 294 293 293 291 290 291 291 291 291 291 291 292 292 293 292 292 291 291 291 291 291 291 292 292 292 293 293 293 293 293 292 292 292 292 293
280 279 280 280 278 278 279 281 281 280 280 280 280 281 282 282 281 282 282 284 283 281 283 284 284 285 288 289 290 291 292 292 293 293 293 291 292 295 295 295 295 296 297 299 299 299 299 299 298 296 294 292 293 292 291 292 292 291 291 291 290 290 291 292 291 291 291 291 290 290 290 291 290 291 291 292 291 291 291 291 290 290 290 290 290 290
282 279 283 279 277 277 279 280 281 281 280 278 280 281 282 282 282 283 282 283 284 283 283 283 283 283 289 292 292 293 293 293 293 292 293 293 293 295 295 295 295 296 296 299 300 300 300 299 298 296 295 294 293 292 293 293 293 292 291 289 289 290 290 291 291 290 289 290 289 289 290 290 290 290 290 290 290 290 290 290 289 289 289 289 289 289
283 279 280 277 274 275 278 276 278 279 280 279 279 280 280 280 279 281 280 283 282 281 283 283 281 282 288 291 292 292 292 292 291 292 293 293 294 294 293 295 295 295 296 297 298 301 302 301 299 297 295 294 294 292 292 292 290 290 291 291 290 289 289 290 289 289 289 289 289 289 289 288 288 288 288 288 288 288 288 288 288 288 288 288 288 288
280 277 276 275 274 274 278 277 277 277 277 275 276 280 281 282 283 284 285 286 285 286 282 280 281 288 290 291 290 290 291 291 291 292 293 293 294 294 294 294 295 296 297 298 297 296 300 301 300 298 296 294 295 294 293 292 290 290 291 290 289 289 289 288 288 288 288 287 287 287 287 287 287 287 287 287 287 288 288 288 288 287 287 287 287 287
281 280 278 277 272 274 277 276 276 274 269 271 282 284 285 283 283 281 282 284 286 287 286 288 288 290 290 290 289 289 290 291 292 294 295 294 294 293 294 295 293 293 295 296 297 297 296 299 300 298 296 296 294 294 292 291 291 289 288 288 286 287 287 287 286 287 287 287 287 287 287 287 287 287 287 287 287 287 288 288 287 287 287 287 287 287
280 279 278 277 274 274 276 275 273 268 270 281 285 287 288 287 287 285 285 286 287 288 289 288 289 289 291 291 291 292 292 294 294 294 295 295 294 295 294 295 295 294 295 295 295 295 295 298 299 297 293 293 293 292 292 290 288 287 287 287 287 286 286 285 285 284 285 286 286 287 287 287 286 287 287 287 288 288 288 288 287 287 287 286 286 286
280 279 279 277 276 276 274 272 266 270 279 283 284 285 286 286 286 285 284 287 288 288 288 287 289 291 291 292 293 293 293 294 294 291 293 294 295 295 295 295 295 295 295 295 294 296 296 297 298 297 295 294 292 291 292 289 288 288 287 286 286 285 285 285 285 285 285 286 286 286 286 286 286 286 286 287 287 287 287 287 287 286 286 287 286 286
284 282 279 275 279 272 274 273 272 278 278 280 280 281 282 280 281 281 277 282 288 289 289 288 289 290 291 292 293 294 294 293 290 291 294 296 297 297 297 297 297 296 296 295 296 297 298 299 299 298 295 292 292 291 290 288 288 287 287 286 286 285 286 286 285 284 284 285 286 286 286 286 286 286 286 287 286 286 286 286 286 286 286 286 286 286
286 280 281 276 276 278 273 271 271 271 269 275 281 286 288 289 288 287 282 282 289 290 290 289 289 290 290 292 292 293 293 289 288 290 295 296 297 298 298 298 297 296 296 296 296 296 296 296 295 293 294 292 290 290 288 288 288 287 286 285 285 285 285 285 285 285 285 285 284 285 285 286 286 286 286 286 286 286 285 285 286 285 286 285 285 284
285 285 283 279 277 277 275 271 271 270 273 280 281 285 289 290 289 285 280 278 287 289 290 290 289 290 291 290 291 291 288 285 286 290 295 297 296 297 297 298 298 297 296 296 296 298 296 295 294 292 291 290 289 288 287 287 287 287 286 285 284 285 284 284 284 284 284 284 284 284 285 286 286 286 286 286 286 286 286 285 285 285 285 285 284 284
280 281 281 276 275 277 275 273 271 274 274 279 283 285 288 289 290 284 273 276 287 288 292 291 290 291 290 291 290 289 287 284 286 291 294 294 294 295 296 296 297 297 297 297 295 298 297 291 290 289 290 290 289 288 288 287 287 286 286 285 285 284 284 283 283 283 283 283 283 283 284 284 285 285 285 285 285 285 285 285 285 285 285 284 284 284
277 278 279 276 277 277 276 274 276 276 282 284 284 286 287 290 286 276 272 280 286 288 290 290 290 290 291 290 290 288 290 292 293 294 294 292 292 292 293 295 297 297 297 296 293 292 292 291 293 292 291 290 289 288 288 287 287 286 285 285 285 284 284 283 283 284 283 283 283 283 283 283 284 284 284 284 284 284 284 284 284 284 284 283 283 283
275 276 278 278 276 275 275 273 274 277 282 285 283 287 287 284 274 276 284 287 287 287 288 290 290 290 290 289 290 290 291 292 292 292 291 292 294 293 294 293 292 289 286 289 289 291 291 289 287 287 286 287 288 288 287 287 286 285 284 284 283 283 283 283 283 283 283 283 283 283 283 283 283 283 283 283 283 283 282 282 283 283 282 282 282 281
276 273 273 274 276 277 275 272 272 269 280 287 284 283 285 280 281 287 287 289 289 287 288 287 288 289 289 288 289 289 290 290 290 291 291 291 290 291 291 291 291 290 288 288 289 288 291 289 288 289 287 287 287 287 287 287 286 285 284 283 282 283 284 284 284 283 283 283 283 283 282 282 282 282 282 282 282 282 281 281 282 282 282 282 281 281
278 273 275 276 277 273 274 271 272 278 283 288 287 280 283 288 290 291 290 287 289 287 287 287 288 289 289 289 288 288 288 288 289 290 290 290 288 287 286 286 285 285 286 286 286 286 286 288 286 285 283 285 286 286 286 287 285 285 284 283 284 284 284 284 283 283 283 282 282 282 281 281 281 281 281 281 281 282 281 281 282 282 282 282 282 281
282 278 278 276 277 274 275 279 283 285 285 287 287 287 288 291 291 290 289 289 288 289 287 288 288 289 289 288 288 287 287 288 288 290 289 290 288 286 286 285 285 285 284 284 285 285 285 286 285 284 283 283 284 285 285 285 285 284 282 283 284 284 284 284 283 283 282 281 281 281 281 281 281 281 281 280 281 280 280 281 281 281 281 281 281 280
283 283 281 278 280 283 284 285 286 285 286 287 289 289 289 290 290 290 289 289 289 290 290 289 290 290 289 288 286 286 287 287 288 289 290 289 287 285 284 284 283 283 282 283 283 283 283 283 283 283 283 282 283 284 284 284 285 283 282 283 283 283 283 283 282 282 281 281 281 281 281 280 280 280 280 280 280 280 280 280 281 281 281 281 280 280
281 279 278 278 281 278 275 282 281 284 284 286 287 288 288 289 290 290 289 288 289 289 288 288 288 288 288 287 287 286 287 288 288 289 289 288 286 283 283 283 284 283 283 282 282 282 283 283 282 282 282 282 282 283 283 283 283 283 283 283 283 283 283 282 281 280 280 279 279 279 280 280 279 279 280 279 280 281 282 282 281 281 281 280 280 279
277 281 279 280 280 278 278 282 283 285 285 286 286 285 286 288 289 289 290 290 290 289 288 289 288 287 286 287 288 287 287 288 287 287 288 288 286 283 283 283 283 283 283 282 281 282 282 283 282 282 282 282 283 283 283 282 282 283 283 283 282 282 282 281 280 279 278 278 278 278 279 279 280 280 279 280 280 280 279 279 280 279 279 279 278 278
281 282 275 278 277 279 281 282 283 283 283 284 284 284 287 289 290 290 290 289 287 287 288 288 288 287 287 288 288 288 287 288 287 287 287 287 285 283 283 283 282 282 282 282 281 281 282 282 282 282 282 282 282 282 282 282 282 282 282 282 282 281 280 279 279 278 278 278 278 278 279 279 278 278 278 277 277 277 278 278 278 277 276 277 278 278
278 274 278 277 274 274 275 278 281 278 278 282 283 285 286 287 287 287 287 287 288 288 288 288 288 288 288 288 288 288 287 288 288 288 287 286 285 283 282 282 282 281 281 281 281 281 281 281 282 281 281 281 281 281 281 281 281 281 281 281 281 281 280 279 278 278 277 278 278 278 278 278 278 277 277 276 275 275 275 279 280 278 277 277 280 281
276 277 277 275 274 274 280 282 284 283 283 284 285 286 286 287 287 287 287 287 288 288 288 288 288 288 289 289 289 287 287 287 288 288 287 286 285 282 282 281 281 281 281 281 281 280 281 281 281 281 280 280 280 280 280 280 280 280 281 281 281 280 279 279 278 278 277 277 277 278 277 277 277 277 277 276 276 275 274 274 276 279 280 279 280 280
Wind_Speed
3 7 7 9 9 8 9 11 12 10 9 12 8 4 5 5 4 4 6 3 3 3 7 8 10 11 11 10 11 13 11 11 13 8 4 5 6 8 8 7 7 8 9 7 8 10 11 10 10 9 8 8 7 7 8 9 9 9 10 9 10 10 9 9 9 8 9 9 7 6 8 9 8 9 8 8 8 8 8 8 9 9 8 8 9 9
5 8 11 11 8 9 10 10 11 11 11 11 8 7 6 5 6 3 3 4 2 3 2 4 6 8 9 10 9 6 11 14 13 10 7 6 5 5 5 6 6 5 5 7 7 7 9 9 9 8 8 8 9 8 8 10 11 10 9 10 9 9 10 10 9 9 9 9 10 10 11 10 9 9 10 10 9 10 8 8 8 8 8 8 8 9
3 10 11 8 9 10 10 10 9 11 12 11 9 7 8 7 5 6 8 4 1 1 3 5 5 5 7 8 10 12 8 7 10 8 8 9 10 9 7 6 6 6 4 6 7 8 9 11 9 9 8 9 10 10 11 10 8 9 9 9 9 9 10 9 9 9 10 9 8 9 7 9 7 7 8 7 7 7 8 8 8 7 8 9 8 8
8 10 12 9 9 10 9 8 10 10 10 8 7 8 9 5 5 4 6 7 8 3 2 3 5 7 7 10 14 14 12 8 7 11 11 9 9 8 9 8 7 7 7 5 6 8 8 8 9 8 8 9 8 8 8 8 9 9 9 8 9 9 9 9 10 10 9 8 7 6 5 6 7 6 6 8 7 7 8 9 8 8 8 9 10 9
11 5 5 13 13 10 10 9 9 8 8 7 9 8 7 7 9 8 5 6 5 3 3 5 6 9 7 10 9 9 13 16 13 10 13 13 9 10 8 8 8 8 6 6 5 7 8 9 8 9 9 8 8 8 9 10 10 9 11 10 10 10 10 10 10 10 7 7 6 6 5 4 5 4 5 6 7 8 8 8 9 12 10 10 9 9
13 12 11 9 5 9 10 9 8 6 8 7 8 9 9 8 9 9 7 8 7 7 4 2 5 10 5 12 15 10 9 15 16 18 14 11 12 10 11 11 9 7 6 3 4 5 7 8 9 9 9 9 8 9 9 9 10 9 9 10 10 8 8 9 10 10 8 8 9 8 8 8 6 6 5 9 11 9 10 12 9 8 10 10 10 9
8 8 9 12 9 6 6 8 7 6 7 7 6 7 10 10 10 9 9 5 5 8 2 8 8 10 3 6 7 11 13 14 12 16 17 15 12 10 12 11 8 8 6 5 4 4 3 1 2 5 9 9 9 9 8 8 8 9 9 9 10 10 9 9 9 11 10 8 8 11 11 11 11 11 9 8 6 8 8 6 8 8 8 10 11 10
2 3 6 9 9 9 7 7 6 7 6 8 4 6 4 7 12 10 9 8 8 5 6 8 4 7 11 6 6 5 5 12 15 13 15 16 16 14 12 11 9 8 7 8 7 7 8 7 6 6 5 7 10 9 8 9 8 10 10 9 10 9 10 9 9 11 12 11 10 10 10 10 10 11 11 9 9 6 6 8 8 7 8 9 10 9
2 3 9 8 8 9 9 7 5 5 8 4 2 2 5 5 4 3 3 5 4 3 6 6 6 10 11 8 5 4 9 10 8 11 15 15 14 14 14 13 11 11 11 11 11 12 13 12 12 11 11 9 7 8 10 10 11 11 11 11 10 11 11 10 12 12 12 12 12 11 10 10 10 10 9 7 7 8 8 8 8 9 8 8 10 10
1 7 7 9 4 9 7 7 6 8 6 2 6 2 4 4 4 3 2 2 3 4 9 9 7 9 14 10 7 7 13 14 11 11 8 10 14 13 13 13 13 11 10 12 14 13 13 12 12 10 11 11 10 8 8 9 9 10 9 11 12 11 10 10 11 12 12 13 11 10 10 12 10 9 7 6 7 9 9 9 9 9 9 9 9 10
9 2 3 3 5 5 5 7 7 6 9 3 4 5 5 3 3 2 2 2 1 11 11 14 12 11 12 9 8 8 7 8 8 9 12 12 7 7 13 15 14 14 11 9 11 12 11 10 10 9 10 9 8 8 8 8 9 9 10 11 11 12 9 9 10 11 12 12 11 11 12 13 12 11 9 7 6 6 6 8 8 8 8 8 8 8
6 5 4 1 6 5 5 6 6 5 6 4 2 2 3 4 3 3 2 3 7 9 11 14 13 14 14 7 5 7 8 9 7 8 10 11 12 10 6 8 13 12 10 6 6 6 7 6 6 6 7 8 8 7 8 7 7 8 8 8 9 8 9 8 9 10 12 11 12 11 12 12 12 11 10 11 11 10 9 9 9 7 6 6 7 8
6 7 5 9 5 7 4 5 5 5 6 6 3 3 5 3 3 4 4 8 11 12 7 6 7 10 16 16 6 8 7 7 6 4 4 5 6 5 5 7 6 6 5 4 4 5 6 8 9 8 8 7 7 7 6 6 6 6 6 7 8 9 9 10 9 11 12 11 11 12 12 11 10 10 10 10 10 9 9 8 8 8 8 7 7 7
5 5 9 9 6 8 5 5 3 5 5 6 8 5 6 6 6 7 6 4 7 7 8 6 6 11 5 12 13 17 19 18 18 16 11 5 1 2 2 1 2 3 5 5 7 9 8 8 8 8 7 6 6 5 5 5 5 5 5 6 8 9 9 9 10 11 11 12 12 12 11 10 9 9 9 8 9 8 7 7 8 8 8 8 9 8
4 2 6 6 2 7 9 9 6 5 4 8 4 7 6 5 4 7 5 7 7 8 5 9 5 3 7 7 6 12 14 14 17 17 16 10 5 5 6 4 4 6 6 8 8 7 7 6 6 5 5 5 5 5 5 5 5 5 6 6 7 8 7 7 9 8 9 10 10 10 9 8 7 7 7 7 7 7 7 7 8 8 7 8 7 8
5 7 8 4 6 7 11 11 10 6 10 5 2 4 8 11 5 11 4 3 1 3 3 3 6 4 7 4 6 4 8 7 12 14 13 14 11 5 6 9 9 7 7 7 6 7 6 6 5 5 5 5 5 6 5 5 5 5 6 6 6 6 6 5 4 4 6 7 6 7 7 8 7 7 6 6 6 6 6 5 6 6 6 6 6 6
3 4 2 6 5 6 5 5 8 9 7 3 7 7 9 6 9 4 7 9 7 7 9 3 6 6 7 12 13 12 7 4 5 5 7 10 11 11 12 11 10 8 7 8 8 7 6 5 4 5 5 5 5 4 5 5 3 3 2 1 1 1 1 1 2 2 1 1 1 2 4 4 5 6 6 7 6 6 5 5 5 6 5 4 4 4
3 8 7 8 13 6 3 2 3 6 4 5 4 5 5 5 5 3 7 4 8 11 8 6 10 9 6 8 7 14 15 12 7 8 8 6 5 7 8 8 7 7 9 9 8 5 5 5 5 5 4 4 4 4 4 3 2 1 1 0 1 1 3 4 4 4 3 4 4 4 4 4 5 5 5 5 5 5 6 4 5 4 4 4 4 5
2 6 4 1 4 9 1 7 8 4 5 8 6 4 2 5 8 4 0 8 5 9 6 12 10 8 5 8 5 5 4 6 10 10 7 9 8 6 6 6 5 6 6 5 4 3 2 3 2 1 2 3 3 3 3 3 2 1 1 0 1 2 1 1 1 1 2 3 4 3 4 4 3 3 4 4 4 4 5 4 4 3 3 3 3 5
2 1 2 1 2 6 4 1 4 5 4 6 4 8 3 3 4 4 5 4 5 7 6 8 6 9 8 9 10 14 15 13 8 4 7 11 10 9 4 2 4 5 3 2 1 1 1 2 2 2 2 1 1 2 2 3 2 3 3 4 2 2 1 1 1 1 2 2 3 3 3 4 4 4 3 3 4 5 5 4 5 5 5 4 4 4
2 2 6 1 1 0 3 3 5 4 4 2 2 7 4 2 3 1 2 3 3 4 8 6 9 3 6 5 10 13 15 12 11 10 7 1 4 5 5 2 1 0 0 0 0 0 1 1 0 1 1 1 1 1 1 2 3 3 2 3 3 4 3 3 2 3 3 4 3 4 4 4 4 5 4 6 7 7 5 5 5 6 5 5 5 5
1 1 4 6 6 4 7 3 5 6 5 5 4 8 8 10 7 8 11 4 3 3 3 6 11 4 3 2 1 3 3 4 3 3 3 2 3 4 2 1 2 2 1 0 1 2 2 2 1 1 1 0 1 1 1 0 1 2 2 2 2 3 3 3 3 4 4 4 4 4 4 4 4 4 6 7 6 6 5 4 5 5 6 6 5 5
3 1 1 7 6 7 9 9 2 1 4 3 4 5 4 2 3 5 10 8 3 6 5 6 6 5 1 2 4 4 2 1 2 4 4 3 1 2 2 2 1 1 0 1 1 0 0 1 1 0 2 3 3 3 3 1 1 2 2 2 3 4 3 3 2 4 5 5 5 4 4 4 4 5 6 6 5 5 4 4 5 5 6 6 6 5
0 0 2 5 5 8 10 12 1 2 2 3 3 3 3 7 9 9 7 5 6 4 7 7 11 7 8 7 3 2 3 2 1 2 1 3 3 3 2 2 1 0 0 0 1 1 1 0 1 1 1 1 2 2 3 2 3 2 2 2 3 4 4 3 3 4 5 6 6 5 5 4 5 6 6 6 5 5 4 4 5 5 6 6 5 6
1 2 4 5 6 6 4 2 1 1 2 0 3 4 8 10 11 10 9 5 6 5 10 7 11 3 6 8 11 4 4 2 2 1 0 1 1 1 0 0 1 1 0 1 2 3 2 2 2 4 4 4 3 3 3 3 3 3 2 3 3 3 3 3 3 4 5 6 7 6 6 5 5 6 6 7 6 6 5 5 6 6 7 7 7 7
2 3 2 2 4 6 8 3 2 1 1 2 2 9 11 11 13 9 10 8 10 7 11 9 9 8 9 7 3 3 4 3 1 1 2 2 1 1 1 3 3 2 2 2 1 1 2 3 4 2 1 2 4 3 3 3 3 3 3 3 3 3 3 3 4 4 6 7 8 7 7 6 6 6 7 7 6 6 6 6 6 7 6 7 8 7
1 1 3 5 5 8 9 7 6 4 6 8 10 8 10 9 11 12 12 11 11 7 11 9 11 12 14 13 11 8 7 6 6 4 5 4 5 6 4 3 2 3 4 3 3 3 2 2 3 2 1 2 3 3 3 4 4 4 4 3 3 3 3 3 4 4 6 6 7 7 6 6 6 6 6 6 6 6 6 7 7 8 8 7 8 9
1 4 7 7 10 12 12 13 15 8 9 12 12 14 12 11 10 10 12 15 9 10 15 10 10 11 14 13 10 12 16 16 10 8 5 4 6 7 5 3 4 4 3 2 2 4 4 4 4 4 3 3 3 3 3 3 3 4 4 4 4 3 3 4 5 5 6 6 7 6 6 5 5 5 6 6 6 7 7 7 8 8 8 9 10 9
2 4 5 6 12 13 13 15 15 11 9 12 14 14 16 15 13 12 13 15 15 14 15 14 11 12 12 14 14 13 9 10 9 12 13 14 9 4 3 1 2 3 3 4 5 4 4 5 5 5 4 4 4 4 4 4 3 4 4 3 4 4 4 4 6 6 6 6 7 6 5 5 4 5 6 6 7 7 8 8 8 8 8 8 9 8
1 6 7 6 12 9 11 12 12 11 12 11 13 16 16 15 15 15 15 16 16 16 15 16 16 17 14 17 19 19 17 15 13 10 9 7 8 4 4 5 5 5 4 4 5 5 5 6 6 6 5 4 5 4 5 5 5 4 4 3 3 4 4 6 5 6 6 7 6 5 5 5 5 6 6 7 8 7 8 8 8 9 10 10 9 9
3 5 2 1 4 11 12 11 11 11 11 14 14 14 15 16 16 15 13 14 14 16 16 19 20 18 14 16 19 17 15 14 14 16 17 16 10 5 7 7 5 5 6 5 5 6 8 8 6 6 7 7 5 6 5 4 5 6 6 5 4 4 3 5 6 6 6 7 5 6 6 6 6 6 7 7 8 8 9 9 9 10 10 10 9 10
4 3 1 2 4 11 11 5 6 7 8 11 14 16 18 16 13 13 11 11 12 15 15 14 16 15 14 15 17 19 16 15 16 17 14 12 14 15 13 8 8 7 7 7 7 7 7 7 7 8 8 9 9 7 6 5 4 5 7 7 6 5 4 5 6 7 7 6 6 6 7 7 8 9 8 8 9 9 9 9 10 10 10 10 10 9
4 1 2 2 5 10 18 5 5 7 9 11 14 20 19 13 14 15 14 13 14 15 13 13 15 14 16 15 16 17 15 15 16 16 16 16 15 13 13 10 9 9 9 9 8 8 8 9 9 10 10 7 9 9 7 7 6 6 5 5 5 5 6 5 6 7 7 6 6 7 7 7 9 9 9 9 9 9 10 10 11 10 10 10 7 8
5 6 7 1 4 10 17 6 3 5 7 12 14 5 6 12 14 14 15 16 16 11 13 13 14 12 13 16 18 19 21 20 17 15 11 10 9 10 13 13 9 7 7 7 9 9 8 7 8 9 10 10 7 8 8 8 7 5 5 6 5 6 5 5 4 5 7 7 6 6 7 7 8 9 9 8 9 9 10 11 11 9 8 9 8 10
6 5 7 3 3 9 11 7 8 9 12 13 7 7 6 10 11 14 16 15 14 14 16 17 17 17 18 18 19 20 19 19 15 11 11 8 8 10 11 12 12 12 13 13 11 8 6 8 8 7 6 7 9 9 10 8 7 6 7 7 6 5 7 5 5 4 4 6 6 6 7 8 8 9 8 8 9 10 10 10 10 10 8 8 8 9
10 10 7 5 4 4 5 4 4 12 7 9 16 18 17 14 14 11 13 16 17 17 16 18 21 21 21 21 20 19 20 22 11 5 7 7 7 9 10 11 12 12 11 8 7 7 6 6 9 10 10 8 9 8 8 11 9 9 7 6 7 7 6 7 6 5 5 6 7 8 8 10 10 10 9 9 9 10 9 9 9 10 8 9 8 8
13 8 5 7 4 8 5 8 12 10 15 18 16 8 1 4 4 6 9 15 17 14 14 16 18 19 19 19 20 19 19 14 9 7 6 14 13 10 10 11 11 10 8 7 6 7 7 7 8 10 7 8 9 10 9 10 11 10 9 8 7 8 7 7 7 5 4 4 5 6 7 8 11 11 10 10 10 9 9 9 9 8 7 10 9 9
9 10 6 8 5 8 8 9 6 4 8 15 13 3 8 8 8 4 1 12 14 11 9 12 16 18 17 17 17 18 13 10 12 10 12 16 15 14 13 9 8 7 7 8 6 6 6 6 6 5 9 9 9 9 9 10 12 11 10 9 8 9 7 8 7 6 6 6 4 4 4 6 9 11 10 10 11 11 9 8 7 8 7 10 10 10
7 10 10 11 8 4 7 7 6 7 10 12 15 8 4 7 10 4 3 10 11 13 12 10 13 14 14 14 16 14 10 10 12 11 13 16 12 9 11 12 11 9 9 8 8 7 6 7 8 8 7 9 10 8 8 10 14 13 11 9 9 9 9 7 7 6 7 5 4 4 4 4 7 9 10 10 9 9 10 9 8 7 8 9 9 10
4 5 9 11 11 9 10 10 10 4 7 7 1 3 6 1 5 6 6 8 2 6 9 12 12 13 11 9 8 9 7 10 11 13 10 5 7 8 10 12 12 12 12 11 8 9 9 7 8 7 10 11 12 12 12 10 11 12 12 11 10 10 9 7 6 5 6 5 5 4 4 4 6 7 9 10 9 9 9 8 9 8 9 8 8 8
2 4 5 12 10 13 15 10 7 7 8 12 11 11 15 3 1 4 12 8 7 7 7 8 8 8 10 13 11 11 7 7 11 14 11 6 4 7 8 9 12 13 13 10 7 5 6 7 11 13 14 12 11 11 12 12 11 11 10 11 11 11 10 8 8 7 7 6 6 6 6 6 6 9 8 7 8 8 8 8 9 9 10 10 8 9
3 2 3 4 9 9 9 9 11 7 6 3 2 4 4 5 3 9 4 8 8 9 8 6 9 9 8 6 7 10 13 16 15 14 13 8 8 7 8 8 6 1 1 0 6 8 7 6 5 5 5 6 11 11 10 10 11 10 9 8 8 8 10 11 10 9 8 9 9 8 8 7 6 7 8 7 9 10 10 7 9 9 9 8 8 9
4 3 4 4 2 4 4 8 6 7 1 6 3 7 3 1 4 4 8 12 7 8 11 7 6 8 10 14 14 13 15 16 16 16 14 10 7 7 6 5 6 7 5 3 2 3 8 7 7 9 9 8 10 10 10 11 11 11 10 9 7 7 10 12 11 11 11 11 10 9 8 7 6 6 5 7 8 11 10 8 9 8 9 9 9 9
1 0 4 5 3 5 7 7 5 2 6 7 7 6 4 6 5 5 7 11 8 6 5 8 11 8 7 10 13 15 15 15 17 14 12 10 7 5 4 3 3 1 1 0 2 4 5 5 4 5 4 6 8 9 9 12 13 11 13 12 10 9 8 10 11 12 12 11 10 10 9 7 6 5 6 8 9 10 11 9 8 8 7 7 8 7
7 7 3 9 1 2 7 8 10 13 14 13 11 11 11 9 5 5 6 9 10 7 5 9 11 11 6 8 12 12 13 13 14 13 11 10 9 6 4 2 1 0 1 1 1 2 4 6 7 6 5 5 6 6 7 7 13 13 13 10 12 13 13 11 11 12 12 12 12 12 10 8 7 6 7 6 8 10 9 8 8 9 6 7 7 7
7 9 4 4 12 10 11 14 15 13 13 13 8 5 6 8 8 8 10 10 6 7 7 11 12 11 10 5 8 12 10 11 13 15 13 11 8 4 0 0 2 3 3 2 2 3 5 6 7 7 7 5 5 5 5 6 12 16 12 11 11 12 12 13 14 13 13 11 10 10 10 11 8 8 8 8 7 8 7 8 8 8 6 7 6 6
6 2 3 5 7 9 10 1 3 6 6 8 13 15 15 14 13 9 9 8 9 9 10 9 11 11 10 7 8 11 13 12 12 13 12 11 7 4 2 2 1 2 4 4 3 5 6 7 8 7 7 7 5 6 6 7 7 11 12 12 11 12 13 13 14 13 12 12 11 9 9 11 9 9 8 7 7 7 7 7 7 8 7 7 7 6
6 3 12 10 11 10 15 17 15 12 15 16 15 16 15 11 8 7 10 10 10 8 7 10 9 9 6 9 9 9 12 12 10 11 11 10 7 4 3 2 2 1 1 3 3 5 5 7 8 9 9 9 7 7 9 10 10 11 12 11 12 12 13 14 14 14 12 11 10 8 8 10 11 11 8 7 7 7 7 7 7 8 7 6 5 7
13 11 13 9 12 17 19 21 18 14 15 14 12 6 6 8 11 12 11 9 6 7 9 9 7 9 8 10 9 10 11 14 10 7 9 9 6 4 4 4 3 3 4 4 3 4 5 5 7 8 8 7 7 9 10 11 11 11 13 12 12 13 14 13 13 12 11 10 10 9 8 8 8 8 9 9 8 8 6 6 6 8 7 5 4 4
10 15 14 11 14 15 15 14 9 12 13 11 10 15 17 14 10 11 7 8 9 9 9 10 11 8 8 8 9 10 11 13 11 6 10 9 7 5 4 3 2 3 3 3 3 4 4 5 7 7 8 7 7 8 9 10 10 10 10 11 12 13 16 15 13 12 11 9 9 9 9 8 8 8 9 9 9 9 10 13 13 7 7 6 7 12
12 15 9 10 11 14 14 13 12 13 17 20 18 13 10 9 10 13 14 13 13 12 10 12 14 13 13 12 7 7 10 11 12 8 8 8 6 3 3 3 3 3 3 4 5 5 6 6 6 7 8 8 8 9 9 10 10 10 10 10 11 13 15 15 13 11 10 9 9 9 9 9 9 7 8 8 8 8 9 8 9 14 13 10 10 13
Wind_Direction
183 212 217 219 224 232 221 225 234 236 259 283 299 324 312 299 268 237 242 164 232 249 237 240 242 253 262 240 226 231 249 252 263 269 250 214 219 229 227 218 204 195 198 193 190 184 181 177 175 176 172 173 176 179 176 182 184 181 182 175 184 185 181 181 184 183 181 187 192 202 206 210 203 206 206 209 209 211 209 202 200 197 197 194 191 195
229 219 228 225 229 236 250 232 233 251 252 256 274 280 273 266 263 294 306 102 288 153 240 231 264 263 260 270 270 233 222 241 243 245 257 270 256 253 250 243 236 219 196 186 189 175 170 170 170 168 167 163 172 190 180 187 191 185 180 185 183 175 187 190 188 185 188 193 193 190 199 200 202 201 202 211 206 208 210 208 203 198 196 196 193 193
227 240 236 231 238 246 249 261 250 239 248 248 248 258 260 257 290 294 307 308 150 35 301 342 302 277 271 276 277 273 260 244 247 238 226 232 249 259 260 261 258 251 243 205 175 168 159 163 166 166 170 179 182 183 188 190 181 183 189 191 183 180 183 190 189 186 196 194 195 193 200 197 207 211 209 212 207 201 207 208 204 198 196 195 200 193
238 235 249 259 250 248 247 248 261 256 240 243 239 236 246 265 256 261 240 253 264 221 216 204 264 260 262 257 260 271 276 271 258 256 249 228 233 239 243 247 252 251 247 233 176 172 164 163 165 165 176 182 180 176 186 185 184 187 192 192 186 185 182 188 195 197 197 193 192 197 193 193 197 202 200 199 196 196 197 205 200 205 199 196 200 195
235 256 200 210 232 244 250 241 239 249 253 233 234 248 247 241 246 258 290 295 288 267 18 333 278 267 246 262 260 241 252 267 270 262 249 244 235 241 255 247 239 248 241 241 214 177 170 176 182 184 190 183 183 184 187 187 187 191 191 190 188 188 188 189 193 194 182 173 185 189 205 207 200 209 186 184 203 196 195 198 201 207 200 197 196 197
250 249 278 273 224 218 228 245 241 234 247 254 233 233 247 260 273 267 256 255 270 270 215 200 284 259 225 231 240 238 229 232 238 248 254 244 229 225 239 240 235 239 246 235 249 212 192 183 184 192 190 188 190 195 199 189 191 185 184 184 186 187 187 189 191 188 183 183 182 177 184 203 201 209 198 200 201 194 197 204 202 202 198 197 198 198
254 239 248 267 268 262 243 233 229 234 253 244 234 216 234 250 261 260 271 280 256 256 214 175 223 278 209 244 227 223 228 239 231 229 239 241 238 224 226 238 230 224 240 251 253 282 287 259 190 184 187 194 191 204 194 195 189 185 183 184 183 187 189 189 187 182 182 190 190 193 195 197 198 203 216 212 203 201 209 195 197 201 197 200 199 202
238 294 261 250 263 267 263 247 222 227 241 245 263 297 296 243 228 238 249 252 272 285 290 290 264 277 283 230 262 277 251 228 231 233 234 237 240 233 228 230 233 226 222 227 232 236 241 235 226 239 216 185 198 198 189 193 187 188 189 185 185 187 190 190 186 181 184 190 195 198 203 201 205 208 216 205 209 203 194 200 203 197 203 201 202 202
35 220 216 231 237 247 242 235 261 214 232 258 278 41 291 293 308 291 257 264 271 317 259 235 247 271 258 255 233 249 267 266 260 231 228 236 236 233 230 229 232 227 220 219 224 230 234 237 235 230 231 227 208 193 194 191 191 193 193 192 191 193 193 194 188 186 188 191 194 199 202 207 214 214 219 205 196 200 201 203 199 199 201 199 202 202
60 65 16 344 287 238 239 252 242 260 263 251 346 323 273 296 300 270 251 276 290 268 247 240 218 249 260 256 243 215 234 243 241 255 262 230 229 225 221 224 231 234 227 223 221 222 226 230 231 225 226 227 222 219 200 195 187 190 190 194 195 202 197 195 192 192 192 194 194 198 202 208 211 209 215 201 197 198 197 205 196 197 196 197 195 198
277 246 185 294 305 311 303 271 247 243 264 241 214 299 316 300 271 257 153 172 324 245 241 234 226 232 270 237 225 224 228 227 229 233 237 251 249 225 214 215 218 224 228 221 222 222 222 222 221 215 216 218 216 211 198 188 189 188 190 192 196 203 200 196 196 194 198 197 197 201 203 207 207 204 202 199 201 196 192 198 202 195 196 188 189 190
266 272 265 222 227 282 312 315 316 281 266 262 270 239 287 269 242 269 210 147 237 247 238 230 220 223 248 252 208 252 273 259 237 223 225 229 235 240 229 213 212 215 218 217 208 220 227 237 235 218 216 216 216 216 215 201 187 184 188 185 193 199 198 199 201 200 204 200 203 206 206 208 207 199 196 198 203 201 203 199 203 196 184 188 183 186
243 227 221 238 217 269 297 305 281 276 258 244 253 256 240 250 182 235 174 225 214 241 235 234 207 234 236 259 266 285 274 265 249 277 265 241 230 232 250 216 195 178 180 211 228 225 225 226 234 237 237 230 221 218 199 182 175 175 175 182 188 203 201 205 203 204 205 204 205 206 210 213 207 206 203 201 204 201 202 197 194 188 192 186 189 190
249 220 199 218 224 194 208 225 236 252 244 234 219 204 217 235 232 246 224 225 259 254 247 230 197 244 266 263 240 238 244 257 271 276 279 283 289 308 315 304 189 194 200 219 228 227 222 221 226 226 225 219 215 189 176 175 180 189 198 202 203 214 207 209 210 210 207 207 207 206 208 209 201 206 205 207 205 203 200 191 193 191 187 187 193 189
312 320 221 178 265 164 198 209 230 257 218 223 220 207 230 231 225 240 224 226 220 245 243 197 186 215 179 227 213 218 237 232 236 240 248 248 226 222 247 225 220 222 220 223 231 233 227 223 209 202 188 176 181 193 194 199 208 202 213 211 218 227 226 221 221 218 215 213 209 207 207 204 199 202 200 208 201 198 197 191 187 190 184 183 188 187
239 257 297 202 231 170 194 202 209 230 271 245 238 254 226 226 215 241 245 264 343 336 310 205 192 230 225 311 266 244 245 219 228 233 228 232 234 225 225 237 240 226 227 235 240 243 234 216 212 213 212 203 202 209 211 211 211 211 217 213 215 216 225 229 230 233 220 214 202 197 192 196 194 193 191 191 193 193 181 184 176 180 180 180 172 170
236 249 208 311 268 244 223 207 203 192 228 201 201 218 236 251 241 273 285 272 281 265 248 260 304 290 311 289 286 288 280 272 226 248 229 226 230 230 232 233 228 225 217 228 235 238 238 238 229 213 210 208 200 201 207 200 179 174 177 189 237 262 297 283 278 256 261 274 216 217 190 183 186 185 187 186 186 187 179 171 170 164 166 153 146 150
290 275 321 312 298 290 353 31 291 263 293 299 224 241 223 59 96 235 244 213 227 249 257 218 216 240 239 281 202 232 250 251 227 222 236 234 223 227 236 239 229 215 214 216 223 232 232 225 225 225 219 207 193 181 149 107 74 75 69 52 279 266 235 240 230 239 234 229 230 238 240 226 205 198 190 177 174 166 151 146 141 132 140 153 152 127
99 299 270 237 270 277 32 13 312 224 200 236 259 1 1 241 230 189 13 229 234 232 244 235 243 251 221 252 326 305 268 244 224 221 218 229 220 231 248 248 239 223 217 222 228 223 239 262 291 313 119 71 79 78 98 97 92 92 150 148 208 262 258 186 149 165 212 212 208 204 202 190 171 157 158 148 131 129 135 144 136 124 112 96 96 117
105 253 300 14 331 17 356 286 251 279 217 199 329 288 153 285 256 217 209 257 239 260 249 258 209 240 217 239 255 264 269 280 296 271 223 226 211 212 217 46 37 33 44 68 84 94 59 43 59 57 66 99 118 131 144 150 159 178 183 169 190 138 159 133 129 93 100 64 93 86 79 72 83 70 80 97 98 76 75 67 83 89 79 71 64 65
292 215 287 328 84 36 290 182 231 237 248 249 183 259 277 240 284 5 319 235 241 236 236 267 256 226 232 225 237 240 254 259 258 258 277 207 97 100 110 96 41 52 346 37 38 331 1 357 83 79 65 77 61 54 121 172 193 178 167 171 170 162 146 132 125 102 90 81 74 83 79 76 73 74 75 71 70 82 70 64 67 72 87 76 53 55
4 145 255 313 333 287 250 250 262 285 267 271 189 232 244 241 253 251 262 180 219 233 236 235 252 254 266 70 16 346 7 14 344 21 77 85 102 98 114 179 194 189 168 93 358 0 335 308 290 94 62 65 138 164 201 230 118 150 155 125 98 96 105 115 94 105 97 85 83 85 92 85 78 78 70 71 69 75 74 67 71 81 77 73 54 55
168 311 313 281 260 272 270 271 252 242 283 270 156 248 172 265 303 264 248 250 236 233 254 256 292 245 355 316 356 347 358 16 339 1 359 30 64 96 62 83 96 109 222 317 334 318 300 289 294 196 181 194 203 185 157 170 139 118 105 85 93 99 75 88 104 112 112 105 101 93 79 79 84 87 83 84 80 82 81 81 79 77 83 77 68 54
161 232 264 270 274 264 259 251 264 39 117 325 254 241 206 232 231 245 268 311 302 296 262 254 245 247 260 290 320 310 312 310 45 87 352 350 360 8 45 33 36 80 198 224 279 292 276 322 278 238 232 187 133 146 158 149 124 114 98 102 100 108 114 109 107 101 104 110 110 114 107 97 101 102 107 105 105 109 106 98 96 97 98 98 93 84
4 250 121 305 321 305 316 33 34 5 44 193 274 263 246 246 243 235 241 237 260 246 263 255 252 263 266 237 265 339 312 314 22 346 262 294 304 174 164 171 172 177 143 204 220 234 245 255 249 243 209 186 169 147 146 151 144 131 130 105 100 104 110 111 110 104 100 102 101 94 99 100 103 106 107 111 116 116 116 118 120 116 114 111 101 97
232 273 352 280 284 300 301 294 318 17 272 262 242 279 275 263 254 256 245 233 241 233 241 251 262 260 286 299 296 267 283 280 251 242 306 265 253 232 227 209 193 188 202 193 181 138 250 248 248 245 175 147 151 158 146 126 115 102 86 92 114 111 95 92 96 104 103 104 102 97 92 92 92 94 96 95 92 92 91 90 91 100 101 108 107 99
264 262 194 211 222 245 250 267 289 325 310 293 278 273 280 272 268 258 260 253 246 248 252 236 260 279 267 265 279 291 276 266 267 241 217 240 258 260 237 229 199 209 204 201 191 192 207 251 253 241 181 151 131 138 143 137 127 119 111 79 62 82 92 88 86 88 94 94 98 97 93 93 96 100 101 100 100 96 92 90 90 90 92 90 93 94
209 261 232 226 244 248 261 268 271 281 278 275 278 279 275 270 263 256 246 252 247 253 255 245 235 260 269 277 271 269 276 279 282 287 276 249 239 232 218 205 204 217 207 178 181 180 201 217 220 195 185 155 142 107 91 92 114 127 126 118 96 79 80 84 90 90 89 91 88 88 88 88 96 102 104 104 101 98 96 93 89 90 91 93 90 89
219 252 255 189 251 249 252 259 266 271 259 267 274 278 279 276 276 267 258 251 257 249 253 255 235 237 254 268 281 278 275 274 268 267 267 275 272 250 198 197 240 230 205 187 209 198 195 218 217 202 198 194 164 153 135 115 94 80 86 97 106 101 101 104 103 101 103 99 98 101 104 104 98 97 96 97 96 94 93 91 91 88 86 86 87 86
145 248 266 235 263 269 263 263 268 268 273 272 266 263 264 268 265 260 258 256 246 249 255 258 255 245 243 253 253 258 263 270 280 290 298 294 281 256 212 239 248 262 237 218 217 209 196 208 201 192 195 198 191 178 165 157 147 138 131 122 109 103 105 104 108 113 112 111 114 114 112 107 104 102 101 97 95 93 92 90 89 87 85 81 82 82
153 263 323 314 304 273 265 258 259 258 258 265 266 267 266 262 265 259 257 259 256 256 249 253 256 254 244 248 257 255 256 261 264 263 265 271 279 245 241 240 238 233 238 230 221 211 202 201 204 194 188 193 198 191 183 179 163 146 138 140 133 130 128 117 120 116 119 120 122 120 116 112 109 106 99 101 98 95 93 92 90 89 86 84 82 84
169 275 266 244 282 283 274 266 260 262 266 265 275 273 262 257 262 263 250 241 235 245 243 240 246 252 254 249 254 256 256 257 259 262 260 257 257 257 254 242 238 240 237 227 221 216 211 201 194 196 203 196 185 183 181 173 165 153 154 151 149 151 130 124 130 131 131 132 128 127 124 122 117 109 107 104 102 101 101 98 94 91 90 90 88 88
185 248 286 246 271 269 276 299 299 309 309 285 265 254 255 255 242 253 253 249 234 232 238 234 235 234 243 250 255 264 261 255 254 252 255 250 246 250 255 250 232 229 228 222 224 216 201 200 201 203 205 192 188 173 177 160 155 169 168 153 154 136 130 136 139 135 131 132 129 130 129 127 121 116 111 110 109 109 106 103 98 97 97 95 99 96
201 220 245 181 236 275 282 305 305 307 266 256 255 268 229 240 241 239 249 244 241 213 234 237 246 243 242 248 250 254 257 250 245 248 244 250 249 239 242 242 229 224 224 227 227 225 216 206 206 204 195 189 181 163 148 149 157 152 134 131 124 122 123 126 133 136 136 132 130 128 125 121 116 113 113 114 110 109 105 101 100 101 100 102 95 91
246 229 247 209 243 265 289 323 298 255 254 263 291 258 247 249 250 249 255 255 252 236 236 247 248 248 247 247 250 252 256 260 254 254 259 247 238 237 235 233 233 234 240 242 242 241 216 209 205 192 176 166 162 158 141 133 130 126 121 127 119 117 118 115 118 119 125 123 123 120 119 113 108 107 106 105 107 105 103 104 105 101 100 97 97 96
242 236 246 247 243 292 283 249 259 255 275 312 292 283 279 285 278 282 273 261 254 246 233 236 240 241 245 250 253 256 260 263 272 264 265 257 241 238 235 231 227 228 230 229 225 231 210 190 186 184 193 173 153 160 155 145 141 133 136 123 121 119 119 124 127 133 133 130 134 133 134 128 122 117 114 111 105 103 103 101 104 107 106 100 94 88
236 244 235 268 197 246 242 255 250 292 303 288 283 286 161 237 250 223 261 274 256 245 237 241 249 250 252 255 258 262 265 278 290 270 260 260 253 244 238 235 229 230 231 237 225 232 218 196 190 196 167 159 162 156 158 147 137 136 134 131 132 130 133 131 135 138 134 134 136 136 138 134 127 124 122 120 111 106 105 107 103 99 103 97 92 91
225 227 222 236 230 198 245 264 279 277 264 278 259 9 319 286 270 323 34 286 290 277 251 241 247 253 254 257 259 262 274 289 277 268 253 257 251 246 246 248 243 230 223 227 227 221 217 201 190 160 153 160 163 160 149 148 137 137 137 139 140 139 141 141 147 143 137 139 135 131 129 128 125 123 122 120 119 117 113 107 100 100 102 104 103 92
220 224 237 228 243 243 232 236 246 262 258 254 288 305 1 58 82 93 55 282 284 300 297 269 261 256 255 255 262 265 266 262 263 263 258 257 262 250 246 244 241 235 234 229 217 211 192 178 164 152 144 148 155 158 155 153 143 141 146 149 151 148 145 151 151 146 140 137 124 115 114 116 113 115 116 113 111 113 112 110 111 111 99 97 98 98
291 245 239 244 247 243 254 250 248 230 257 259 230 300 278 82 69 58 323 267 52 0 356 331 303 297 298 288 286 283 267 266 268 265 271 263 232 224 220 232 236 239 244 241 229 209 186 146 119 132 151 167 174 158 155 157 151 149 152 158 154 151 152 146 138 121 108 105 101 102 95 96 103 103 109 112 109 105 105 108 101 96 97 90 93 97
211 251 224 247 246 247 248 255 262 271 257 273 283 271 274 251 100 273 251 285 337 345 351 331 330 323 330 330 330 311 291 259 267 278 272 258 243 243 236 223 220 223 232 241 230 166 151 171 166 171 178 178 163 160 158 157 154 155 157 156 157 156 140 129 117 108 105 93 87 82 82 82 95 104 97 100 104 100 93 95 101 99 95 96 92 92
253 233 242 225 243 244 242 246 249 264 284 303 257 31 35 31 277 245 354 329 318 339 338 343 332 344 358 321 308 310 312 317 313 311 307 277 241 235 229 223 212 123 32 55 161 152 158 160 159 143 140 145 156 158 159 159 152 143 141 145 147 141 128 121 118 111 102 94 88 82 79 84 82 89 103 108 108 100 93 87 91 95 99 97 97 93
280 278 257 247 267 260 242 255 265 264 313 22 318 336 38 109 257 274 302 315 340 329 320 325 343 324 333 322 318 314 314 315 312 308 305 296 286 273 265 243 203 196 179 129 146 171 152 160 166 170 164 157 157 160 159 152 143 140 139 134 134 128 125 123 119 112 105 101 95 90 87 84 88 92 97 100 102 103 100 100 96 94 96 99 95 93
115 311 268 255 201 248 268 250 240 273 302 316 336 302 249 233 265 304 321 302 308 310 319 324 313 311 319 316 313 314 313 312 309 311 308 297 297 312 339 360 18 50 71 122 165 163 145 146 142 132 137 149 155 159 162 153 144 143 139 137 139 123 116 114 114 111 107 103 99 92 84 79 83 94 100 103 102 98 103 99 98 93 93 95 96 98
160 213 247 276 244 177 262 265 267 277 290 295 285 282 283 280 275 262 255 269 296 309 299 306 301 305 308 309 308 307 308 305 303 303 299 289 280 284 300 334 4 57 113 123 136 124 127 144 139 129 125 136 145 150 150 150 140 139 133 137 132 130 126 121 116 115 117 119 121 119 121 116 113 106 95 91 100 102 100 95 95 91 78 87 86 88
287 278 247 248 270 267 258 254 269 277 278 282 285 277 285 290 271 264 271 285 281 273 281 284 292 295 301 299 302 301 293 297 306 306 302 291 279 288 347 40 39 57 66 82 79 93 117 109 111 120 124 122 130 131 133 139 144 140 143 139 136 132 129 127 124 121 117 113 110 113 119 112 103 93 89 86 81 87 92 102 98 98 93 87 85 84
276 317 314 271 322 330 277 267 286 290 296 299 302 302 296 278 274 279 289 277 272 268 272 270 269 277 279 286 274 279 291 299 302 300 299 290 272 261 254 206 194 157 152 145 168 128 119 124 121 127 131 133 134 124 120 119 112 123 132 135 133 130 129 125 120 116 117 123 126 129 128 121 117 105 93 87 85 81 85 88 94 95 91 89 91 86
274 63 315 280 282 270 277 287 282 284 287 286 284 286 285 295 305 295 264 261 266 261 247 261 273 275 267 274 268 278 287 293 293 298 300 292 274 246 245 219 194 135 128 156 163 142 133 137 142 143 142 141 141 129 124 120 124 131 130 131 134 133 129 127 128 128 131 132 130 129 125 115 114 111 103 91 90 93 86 74 76 82 77 76 88 107
286 312 267 288 285 277 277 276 282 287 275 269 272 272 274 278 280 276 278 283 273 276 278 278 258 255 260 258 272 278 284 284 284 289 295 298 293 265 244 223 196 166 150 143 152 145 151 149 142 145 138 140 138 133 129 130 133 137 138 140 140 137 128 124 124 124 127 129 124 122 117 112 111 109 108 100 85 67 62 80 87 92 83 58 49 61
280 264 274 283 274 271 273 290 318 305 304 300 299 305 304 295 290 287 290 298 302 301 296 292 292 280 257 250 254 261 268 279 288 303 303 296 282 262 248 237 214 159 151 153 130 124 124 137 139 139 134 127 125 124 125 129 132 137 140 139 142 139 131 131 129 128 130 131 126 123 118 115 113 113 110 109 105 97 74 58 66 76 95 95 82 84
248 261 273 268 265 277 289 292 300 296 289 283 292 302 305 315 316 310 307 306 302 297 296 296 295 298 297 293 278 252 260 264 273 288 298 296 286 260 222 224 215 200 172 160 135 135 139 142 136 127 125 130 128 127 130 131 136 138 141 142 144 139 133 133 131 130 131 129 128 130 127 123 117 114 110 111 112 108 110 105 73 74 85 92 93 86